GW5950 Weather Reports


time (UTC)temp
C
wind
direction
speed
KPH
gust
KPH
rain 1hr
cm
rain 24hr
cm
rain mn
cm
humidity
%
barometer
mb
20260507040717 13 93 3.2 4.8 0.00 0.00 0.00 95 1006.0
20260507040213 14 44 1.6 9.7 0.00 0.28 0.28 95 1005.7
20260507035709 14 276 4.8 6.4 0.00 0.28 0.28 96 1005.9
20260507035205 14 39 1.6 6.4 0.00 0.28 0.28 96 1005.8
20260507034702 14 250 3.2 4.8 0.00 0.28 0.28 97 1006.0
20260507034159 14 289 3.2 4.8 0.00 0.28 0.28 98 1005.8
20260507033658 14 191 3.2 4.8 0.00 0.28 0.28 99 1005.4
20260507033154 14 237 3.2 3.2 0.00 0.28 0.28 99 1005.5
20260507032652 15 256 3.2 4.8 0.00 0.28 0.28 99 1005.4
20260507032147 15 344 0.0 8.0 0.00 0.28 0.28 99 1005.2
20260507031645 15 208 6.4 9.7 0.00 0.28 0.28 99 1005.5
20260507031141 15 278 6.4 8.0 0.05 0.28 0.28 99 1005.4
20260507030638 15 266 3.2 14.5 0.05 0.28 0.28 99 1005.1
20260507030136 15 84 3.2 9.7 0.05 0.28 0.28 99 1005.2
20260507025633 15 254 1.6 20.9 0.00 0.28 0.28 98 1005.0
20260507025130 15 254 3.2 4.8 0.00 0.28 0.28 98 1005.1
20260507024628 15 229 3.2 4.8 0.00 0.28 0.28 98 1004.8
20260507024125 15 193 0.0 4.8 0.00 0.28 0.28 98 1005.1
20260507023620 15 193 0.0 4.8 0.00 0.28 0.28 98 1005.1
20260507023118 15 223 0.0 4.8 0.00 0.28 0.28 98 1005.0
20260507022614 15 180 3.2 8.0 0.00 0.28 0.28 98 1005.1
20260507022110 15 198 1.6 4.8 0.00 0.28 0.28 98 1005.1
20260507021606 15 243 3.2 4.8 0.00 0.28 0.28 98 1005.1
20260507021102 15 267 3.2 4.8 0.00 0.28 0.28 98 1004.9
20260507020601 15 115 0.0 3.2 0.00 0.28 0.28 98 1004.7
20260507020056 15 104 3.2 4.8 0.00 0.28 0.28 98 1005.0
20260507015555 15 260 3.2 9.7 0.00 0.28 0.28 98 1005.0
20260507015052 15 212 3.2 14.5 0.00 0.28 0.28 98 1005.0
20260507014549 15 268 1.6 6.4 0.00 0.28 0.28 98 1004.8
20260507014044 15 216 4.8 9.7 0.00 0.28 0.28 98 1004.8
20260507013542 15 232 8.0 14.5 0.00 0.28 0.28 98 1004.9
20260507013039 15 243 8.0 9.7 0.00 0.28 0.28 98 1005.0
20260507012536 15 105 3.2 4.8 0.00 0.28 0.28 98 1004.9
20260507012032 15 198 3.2 8.0 0.00 0.28 0.28 98 1005.0
20260507011530 15 214 6.4 9.7 0.00 0.28 0.28 99 1005.1
20260507011025 15 169 6.4 8.0 0.00 0.28 0.28 99 1005.1
20260507010520 15 209 3.2 6.4 0.00 0.28 0.28 98 1005.2
20260507010017 15 127 3.2 9.7 0.00 0.28 0.28 98 1005.2
20260507005515 15 170 1.6 8.0 0.00 0.28 0.28 98 1005.0
20260507005011 15 265 3.2 12.9 0.00 0.28 0.28 98 1005.2
20260507004508 15 193 8.0 11.3 0.00 0.28 0.28 98 1005.2
20260507004005 15 211 3.2 11.3 0.00 0.28 0.28 98 1005.1
20260507003500 15 164 3.2 8.0 0.00 0.28 0.28 98 1005.3
20260507002955 15 194 3.2 9.7 0.00 0.28 0.28 98 1005.0
20260507002452 15 154 1.6 14.5 0.00 0.28 0.28 98 1005.2
20260507001949 15 242 0.0 14.5 0.00 0.28 0.28 99 1005.1
20260507001446 15 215 8.0 8.0 0.00 0.28 0.28 99 1005.0
20260507000943 15 220 3.2 8.0 0.00 0.28 0.28 99 1005.0
20260507000439 15 176 3.2 12.9 0.00 0.28 0.28 99 1005.0
20260506235935 15 249 4.8 9.7 0.00 0.28 0.28 99 1004.6
20260506235433 15 206 3.2 8.0 0.00 0.28 0.28 99 1004.7
20260506234932 15 235 9.7 11.3 0.00 0.28 0.28 99 1004.6
20260506234431 15 152 3.2 6.4 0.00 0.28 0.28 99 1004.7
20260506233928 15 233 4.8 11.3 0.00 0.28 0.28 99 1004.9
20260506233425 15 266 4.8 14.5 0.00 0.28 0.28 99 1004.9
20260506232921 15 198 8.0 17.7 0.00 0.28 0.28 99 1004.8
20260506232418 15 135 0.0 6.4 0.05 0.28 0.28 99 1004.7
20260506231913 15 193 0.0 4.8 0.13 0.28 0.28 99 1004.9
20260506231411 15 237 4.8 9.7 0.13 0.25 0.25 99 1004.8
20260506230908 15 182 4.8 9.7 0.30 0.25 0.25 99 1004.9
20260506230405 15 183 3.2 4.8 0.36 0.23 0.23 99 1004.9
20260506225901 15 107 0.0 8.0 0.13 0.20 0.20 99 1004.9
20260506225359 15 119 0.0 8.0 0.05 0.18 0.18 99 1004.8
20260506224855 15 200 1.6 6.4 0.00 0.18 0.18 99 1005.0
20260506224353 15 171 1.6 9.7 0.00 0.18 0.18 98 1004.8
20260506223849 15 164 1.6 9.7 0.00 0.18 0.18 98 1005.0
20260506223344 15 211 4.8 12.9 0.00 0.18 0.18 98 1005.0
20260506222842 15 224 11.3 12.9 0.00 0.18 0.18 98 1004.9
20260506222337 15 143 0.0 9.7 0.00 0.18 0.18 97 1004.9
20260506221835 15 222 4.8 9.7 0.00 0.18 0.18 97 1004.8
20260506221332 15 220 3.2 8.0 0.00 0.18 0.18 97 1005.0
20260506220830 15 233 1.6 8.0 0.00 0.18 0.18 97 1005.3
20260506220325 15 225 12.9 17.7 0.05 0.18 0.18 97 1005.4
20260506215822 15 194 3.2 11.3 0.05 0.18 0.18 97 1005.2
20260506215318 15 266 4.8 8.0 0.00 0.15 0.15 96 1005.2
20260506214814 15 131 3.2 19.3 0.00 0.15 0.15 96 1005.2
20260506214311 15 98 1.6 4.8 0.00 0.15 0.15 96 1005.3
20260506213809 15 155 3.2 4.8 0.00 0.15 0.15 95 1005.6
20260506213306 15 256 0.0 6.4 0.00 0.15 0.15 95 1005.5
20260506212804 15 89 6.4 8.0 0.00 0.15 0.15 95 1005.5
20260506212259 15 206 6.4 14.5 0.00 0.15 0.15 95 1005.6
20260506211754 15 234 3.2 9.7 0.00 0.15 0.15 96 1005.5
20260506211251 15 201 6.4 12.9 0.00 0.15 0.15 96 1005.6
20260506210748 15 205 3.2 6.4 0.00 0.15 0.15 96 1005.7
20260506210245 15 258 6.4 11.3 0.00 0.15 0.15 96 1005.5
20260506205742 15 200 3.2 9.7 0.00 0.15 0.15 96 1005.5
20260506205237 15 193 4.8 8.0 0.05 0.15 0.15 95 1005.9
20260506204734 15 186 1.6 8.0 0.05 0.15 0.15 95 1005.9
20260506204232 15 196 8.0 12.9 0.00 0.15 0.15 95 1005.6
20260506203730 15 84 3.2 12.9 0.00 0.15 0.15 95 1005.8
20260506203227 15 25 4.8 9.7 0.00 0.15 0.15 95 1005.8
20260506202725 15 242 4.8 14.5 0.05 0.15 0.15 95 1005.8
20260506202221 15 204 11.3 16.1 0.05 0.15 0.15 95 1005.9
20260506201718 15 140 3.2 11.3 0.00 0.15 0.15 96 1005.8
20260506201214 15 204 3.2 16.1 0.05 0.15 0.15 96 1005.9
20260506200711 15 242 6.4 8.0 0.00 0.13 0.13 96 1005.9
20260506200208 15 196 3.2 14.5 0.05 0.13 0.13 95 1005.8
20260506195704 15 246 9.7 16.1 0.05 0.13 0.13 95 1005.9
20260506195201 15 217 0.0 12.9 0.00 0.13 0.13 95 1005.7
20260506194658 15 252 9.7 17.7 0.05 0.13 0.13 94 1005.8
20260506194154 16 62 3.2 9.7 0.13 0.13 0.13 95 1006.0
20260506193652 16 259 8.0 11.3 0.18 0.10 0.10 93 1006.0
20260506193149 16 2 3.2 16.1 0.13 0.10 0.10 93 1005.9
20260506192646 16 137 1.6 12.9 0.13 0.08 0.08 92 1005.9
20260506192142 16 215 8.0 11.3 0.13 0.08 0.08 90 1005.9
20260506191639 17 259 1.6 6.4 0.13 0.05 0.05 90 1005.9
20260506191135 17 230 4.8 11.3 0.13 0.05 0.05 88 1005.9
20260506190632 17 228 4.8 8.0 0.05 0.05 0.05 87 1005.9
20260506190129 17 230 0.0 3.2 0.05 0.03 0.03 86 1005.9
20260506185626 17 288 0.0 9.7 0.13 0.03 0.03 85 1006.1
20260506185122 18 232 8.0 11.3 0.13 0.03 0.03 82 1006.1
20260506184620 18 242 19.3 22.5 0.05 0.00 0.00 78 1006.1
20260506184117 19 89 4.8 14.5 0.00 0.00 0.00 76 1006.3
20260506183614 19 241 6.4 9.7 0.00 0.00 0.00 75 1006.4
20260506183109 19 205 11.3 14.5 0.00 0.00 0.00 74 1006.3
20260506182608 19 190 3.2 20.9 0.00 0.00 0.00 73 1006.3
20260506182104 20 181 8.0 22.5 0.00 0.00 0.00 72 1006.2
20260506181602 20 226 9.7 20.9 0.00 0.00 0.00 68 1006.3
20260506181059 20 282 14.5 24.1 0.00 0.00 0.00 67 1006.4
20260506180555 21 278 4.8 6.4 0.00 0.00 0.00 62 1006.0
20260506180052 21 274 6.4 8.0 0.00 0.00 0.00 62 1006.1
20260506175548 21 206 8.0 24.1 0.00 0.00 0.00 61 1006.3
20260506175045 21 290 4.8 8.0 0.00 0.00 0.00 60 1006.2
20260506174544 21 205 3.2 20.9 0.00 0.00 0.00 60 1006.2
20260506174039 21 180 9.7 32.2 0.00 0.00 0.00 60 1006.4
20260506173537 22 258 4.8 20.9 0.00 0.00 0.00 60 1006.2
20260506173034 22 255 14.5 24.1 0.00 0.00 0.00 59 1006.2
20260506172531 22 176 8.0 16.1 0.00 0.00 0.00 59 1006.1
20260506172027 22 217 14.5 24.1 0.00 0.00 0.00 58 1006.5
20260506171525 22 237 4.8 16.1 0.00 0.00 0.00 59 1006.5
20260506171022 22 250 6.4 20.9 0.00 0.00 0.00 59 1006.4
20260506170520 22 294 6.4 24.1 0.00 0.00 0.00 58 1006.3
20260506170012 22 201 12.9 20.9 0.00 0.00 0.00 57 1006.3
20260506165510 22 217 4.8 16.1 0.00 0.00 0.00 57 1006.4
20260506165006 22 213 6.4 8.0 0.00 0.00 0.00 59 1006.6
20260506164503 22 226 8.0 27.4 0.00 0.00 0.00 59 1006.4
20260506164001 22 209 6.4 17.7 0.00 0.00 0.00 60 1006.7
20260506163456 22 252 12.9 14.5 0.00 0.00 0.00 61 1006.8
20260506162950 21 244 11.3 19.3 0.00 0.00 0.00 61 1006.9
20260506162448 21 251 8.0 8.0 0.00 0.00 0.00 62 1006.7
20260506161945 21 266 3.2 8.0 0.00 0.00 0.00 63 1007.0
20260506161443 21 220 6.4 12.9 0.00 0.00 0.00 62 1007.1
20260506160940 21 257 4.8 9.7 0.00 0.00 0.00 63 1007.2
20260506160437 21 221 6.4 17.7 0.00 0.00 0.00 63 1007.3
20260506155934 21 229 4.8 12.9 0.00 0.00 0.00 63 1007.4
20260506155432 21 254 12.9 14.5 0.00 0.00 0.00 63 1007.5
20260506153554 21 202 6.4 20.9 0.00 0.00 0.00 64 1007.8
20260506153052 21 201 6.4 22.5 0.00 0.00 0.00 63 1007.9
20260506152548 21 165 3.2 12.9 0.00 0.00 0.00 63 1007.9
20260506152046 21 198 12.9 16.1 0.00 0.00 0.00 62 1007.9
20260506151544 21 209 4.8 16.1 0.00 0.00 0.00 63 1008.1
20260506151041 21 156 3.2 9.7 0.00 0.00 0.00 64 1007.9
20260506150537 21 264 3.2 17.7 0.00 0.00 0.00 66 1007.9
20260506150034 21 212 8.0 8.0 0.00 0.00 0.00 64 1007.9
20260506145530 21 247 6.4 9.7 0.00 0.00 0.00 65 1007.8
20260506145023 21 231 12.9 14.5 0.00 0.00 0.00 66 1008.1
20260506144519 20 222 9.7 20.9 0.00 0.00 0.00 66 1008.3
20260506144017 21 227 4.8 20.9 0.00 0.00 0.00 68 1008.1
20260506143514 21 241 8.0 8.0 0.00 0.00 0.00 68 1008.1
20260506143013 21 257 8.0 8.0 0.00 0.00 0.00 68 1008.1
20260506142510 20 230 6.4 17.7 0.00 0.00 0.00 69 1008.3
20260506142008 20 225 12.9 16.1 0.00 0.00 0.00 69 1008.1
20260506141506 20 175 8.0 29.0 0.00 0.00 0.00 69 1007.9
20260506141004 20 171 3.2 9.7 0.00 0.00 0.00 69 1008.0
20260506140501 20 140 0.0 29.0 0.00 0.00 0.00 69 1008.0
20260506135957 20 273 6.4 22.5 0.00 0.00 0.00 70 1008.1
20260506135455 20 216 8.0 12.9 0.00 0.00 0.00 72 1008.4
20260506134951 19 269 4.8 27.4 0.00 0.00 0.00 73 1008.1
20260506134447 20 223 14.5 27.4 0.00 0.00 0.00 71 1008.3
20260506133944 20 224 11.3 17.7 0.00 0.00 0.00 72 1008.3
20260506133441 19 190 16.1 16.1 0.00 0.00 0.00 73 1008.3
20260506132938 19 243 9.7 11.3 0.00 0.00 0.00 74 1008.6
20260506132435 19 219 6.4 14.5 0.00 0.00 0.00 74 1008.6
20260506131932 18 219 4.8 8.0 0.00 0.00 0.00 75 1008.6
20260506131428 18 265 4.8 9.7 0.00 0.00 0.00 75 1008.7
20260506130925 18 128 4.8 4.8 0.00 0.00 0.00 76 1008.7
20260506130422 18 210 9.7 16.1 0.00 0.00 0.00 76 1008.8
20260506125920 18 194 14.5 14.5 0.00 0.00 0.00 76 1008.6
20260506125418 18 219 9.7 16.1 0.00 0.00 0.00 76 1008.4
20260506124916 18 244 8.0 24.1 0.00 0.00 0.00 76 1008.8
20260506124413 18 212 4.8 20.9 0.00 0.00 0.00 76 1008.6
20260506123911 18 113 3.2 19.3 0.00 0.00 0.00 77 1008.6
20260506123409 18 341 0.0 16.1 0.00 0.00 0.00 77 1008.7
20260506122906 17 208 9.7 16.1 0.00 0.00 0.00 77 1009.0
20260506122402 18 295 3.2 12.9 0.00 0.00 0.00 78 1009.0
20260506121901 17 199 11.3 14.5 0.00 0.00 0.00 78 1008.6
20260506121357 17 184 3.2 8.0 0.00 0.00 0.00 79 1008.9
20260506120854 17 180 3.2 4.8 0.00 0.00 0.00 78 1008.9
20260506120352 18 229 8.0 9.7 0.00 0.00 0.00 77 1008.8
20260506115849 18 160 3.2 11.3 0.00 0.00 0.00 78 1008.7
20260506115347 17 110 0.0 6.4 0.00 0.00 0.00 79 1008.9
20260506114845 17 245 3.2 3.2 0.00 0.00 0.00 81 1009.1
20260506114342 16 214 4.8 14.5 0.00 0.00 0.00 81 1008.9
20260506113841 16 131 3.2 14.5 0.00 0.00 0.00 82 1009.1
20260506113338 16 215 8.0 11.3 0.00 0.00 0.00 82 1009.1
20260506112835 16 243 6.4 9.7 0.00 0.00 0.00 82 1009.4
20260506112332 16 262 0.0 8.0 0.00 0.00 0.00 82 1009.2
20260506111829 16 226 3.2 9.7 0.00 0.00 0.00 82 1009.4
20260506111328 16 261 1.6 6.4 0.00 0.00 0.00 83 1009.1
20260506110825 16 172 3.2 6.4 0.00 0.00 0.00 83 1009.0
20260506110322 16 181 3.2 8.0 0.00 0.00 0.00 82 1009.2
20260506105819 16 191 3.2 11.3 0.00 0.00 0.00 82 1009.3
20260506105315 16 171 3.2 8.0 0.00 0.00 0.00 82 1009.1
20260506104812 16 240 8.0 19.3 0.00 0.00 0.00 83 1009.1
20260506104310 15 217 12.9 17.7 0.00 0.00 0.00 84 1009.0
20260506103807 15 192 3.2 8.0 0.00 0.00 0.00 85 1009.0
20260506103305 15 258 4.8 6.4 0.00 0.00 0.00 85 1008.9
20260506102802 15 125 1.6 6.4 0.00 0.00 0.00 85 1009.0
20260506102300 15 71 1.6 6.4 0.00 0.00 0.00 85 1009.3
20260506101757 15 255 3.2 11.3 0.00 0.00 0.00 85 1009.2
20260506101253 15 188 1.6 4.8 0.00 0.00 0.00 85 1009.1
20260506100751 15 154 3.2 6.4 0.00 0.00 0.00 85 1008.8
20260506100249 15 211 3.2 11.3 0.00 0.00 0.00 85 1008.9
20260506095748 15 183 4.8 8.0 0.00 0.00 0.00 85 1009.1
20260506095244 15 121 3.2 8.0 0.00 0.00 0.00 85 1008.9
20260506094740 15 209 3.2 8.0 0.00 0.00 0.00 85 1008.8
20260506094239 15 140 8.0 8.0 0.00 0.00 0.00 85 1009.0
20260506093737 15 65 1.6 9.7 0.00 0.00 0.00 85 1008.7
20260506093234 15 180 1.6 4.8 0.00 0.00 0.00 85 1009.1
20260506092732 15 192 3.2 6.4 0.00 0.00 0.00 84 1008.8
20260506092230 15 121 4.8 9.7 0.00 0.00 0.00 84 1008.9
20260506091727 15 228 4.8 8.0 0.00 0.00 0.00 84 1009.0
20260506091224 15 118 3.2 8.0 0.00 0.00 0.00 84 1009.0
20260506090722 15 260 6.4 12.9 0.00 0.00 0.00 83 1008.8
20260506090218 15 200 4.8 8.0 0.00 0.00 0.00 84 1008.9
20260506085715 15 188 1.6 4.8 0.00 0.00 0.00 83 1008.8
20260506085212 15 169 4.8 8.0 0.00 0.00 0.00 83 1009.0
20260506084708 15 243 6.4 9.7 0.00 0.00 0.00 83 1009.1
20260506084204 15 183 1.6 4.8 0.00 0.00 0.00 82 1009.2
20260506083702 15 251 4.8 11.3 0.00 0.00 0.00 82 1009.1
20260506083159 15 211 4.8 16.1 0.00 0.00 0.00 81 1009.0
20260506082656 15 277 0.0 6.4 0.00 0.00 0.00 81 1009.0
20260506082156 15 247 8.0 16.1 0.00 0.00 0.00 81 1009.1
20260506081655 15 234 6.4 8.0 0.00 0.00 0.00 81 1008.9
20260506081152 15 288 1.6 8.0 0.00 0.00 0.00 81 1008.9
20260506080650 16 175 9.7 9.7 0.00 0.00 0.00 80 1008.9
20260506080146 16 198 4.8 17.7 0.00 0.00 0.00 80 1008.9
20260506073130 16 244 3.2 8.0 0.00 0.00 0.00 78 1009.0
20260506072627 16 199 3.2 6.4 0.00 0.00 0.00 78 1009.0
20260506072125 16 217 6.4 6.4 0.00 0.00 0.00 78 1008.8
20260506071622 16 263 3.2 14.5 0.00 0.00 0.00 77 1008.7
20260506071120 16 237 6.4 12.9 0.00 0.00 0.00 77 1008.8
20260506070616 16 195 1.6 8.0 0.00 0.00 0.00 77 1008.6
20260506070114 16 159 4.8 25.7 0.00 0.00 0.00 76 1008.8
20260506062051 17 204 8.0 11.3 0.00 0.00 0.00 73 1008.4
20260506061546 17 160 3.2 19.3 0.00 0.00 0.00 72 1008.6
20260506061044 17 272 4.8 14.5 0.00 0.00 0.00 72 1008.6
20260506060543 17 283 6.4 8.0 0.00 0.00 0.00 72 1008.5
20260506051011 17 214 9.7 9.7 0.00 0.00 0.00 69 1008.9
20260506050509 17 91 3.2 6.4 0.00 0.00 0.00 69 1008.8
20260506044959 17 183 1.6 14.5 0.00 0.00 0.00 69 1008.8
20260506044458 17 129 6.4 6.4 0.00 0.00 0.00 69 1008.8
20260506043954 17 283 3.2 8.0 0.00 0.00 0.00 69 1009.0
20260506043451 17 139 0.0 6.4 0.00 0.00 0.00 69 1008.9
20260506042949 17 133 3.2 9.7 0.00 0.00 0.00 68 1008.9
20260506042448 17 191 3.2 4.8 0.00 0.00 0.00 69 1009.2
20260506041946 17 216 3.2 6.4 0.00 0.00 0.00 69 1009.1
20260506041443 17 127 3.2 6.4 0.00 0.00 0.00 69 1009.0